Home > Weather > Mesquite > Past weeks

Flag for USA Past Weather in Mesquite, Texas, USA — Yesterday and Last 2 Weeks

Now
66 °F

Fog.


Feels Like: 66 °F
Forecast: 71 / 81 °F
Wind: 9 mph from South

Location: Mesquite Metro Airport

Current Time: May 27, 2016 at 11:26:40 AM

Latest Report: May 27, 2016 at 10:50 AM


Visibility: 5 mi

Pressure: 29.86 "Hg

Humidity: 100%

Dew Point: 66 °F

Location of MesquiteLocation

Past Weather in Mesquite — Graph

°F

Mesquite Temperature Yesterday

Maximum temperature yesterday: 79 °F (at 12:15 AM)
Minimum temperature yesterday: 71 °F (at 11:35 PM)
Average temperature yesterday: 75 °F

High & Low Weather Summary for the Past Weeks

 TemperatureHumidityPressure
High86 °F (May 21, 3:50 PM)100% (May 17, 6:50 AM)30.23 "Hg (May 17, 6:50 AM)
Low57 °F (May 18, 6:50 AM)34% (May 13, 12:50 PM)29.64 "Hg (May 27, 2:55 AM)
Average70 °F79%30.00 "Hg
* Reported May 12 9:50 AM — May 27 9:50 AM, Mesquite, Weather by CustomWeather, © 2016

Note: Actual official high and low records may vary slightly from our data, if they occured in-between our weather recording intervals... More about our weather records

Advertising

Mesquite Weather History for the Previous 24 Hours

Scroll right to see more
 ConditionsComfort  
Time TempWeatherWind HumidityBarometerVisibility
9:50 AM
Fri, May 27
66 °FFog.14 mph100%29.86 "Hg5 mi
8:50 AM66 °FOvercast.5 mph100%29.80 "Hg7 mi
7:50 AM66 °FFog.5 mph94%29.78 "Hg5 mi
6:50 AM66 °FRain. Overcast.7 mph94%29.81 "Hg7 mi
6:15 AM67 °FOvercast.23 mph89%29.81 "Hg7 mi
5:55 AM69 °FOvercast.22 mph92%29.81 "Hg5 mi
5:35 AM69 °FPassing clouds.26 mph92%29.81 "Hg10 mi
5:15 AM69 °FClear.17 mph94%29.71 "Hg10 mi
4:55 AM68 °FClear.16 mph94%29.71 "Hg10 mi
4:35 AM68 °FClear.17 mph93%29.71 "Hg10 mi
4:15 AM68 °FClear.15 mph93%29.69 "Hg10 mi
3:55 AM69 °FClear.12 mph93%29.67 "Hg10 mi
3:35 AM69 °FClear.17 mph93%29.67 "Hg10 mi
3:15 AM68 °FPassing clouds.18 mph92%29.64 "Hg10 mi
2:55 AM67 °FPartly cloudy.25 mph97%29.64 "Hg7 mi
2:15 AM67 °FPartly cloudy.17 mph96%29.79 "Hg10 mi
1:55 AM67 °FPartly cloudy.18 mph94%29.79 "Hg10 mi
1:35 AM67 °FPassing clouds.14 mph95%29.76 "Hg10 mi
1:15 AM67 °FOvercast.15 mph95%29.75 "Hg10 mi
12:55 AM67 °FOvercast.18 mph95%29.78 "Hg10 mi
12:35 AM66 °FOvercast.5 mph97%29.80 "Hg7 mi
12:15 AM67 °FOvercast.14 mph92%29.83 "Hg3 mi
11:55 PM
Thu, May 26
72 °FPassing clouds.20 mph89%29.85 "Hg10 mi
11:35 PM71 °FClear.8 mph92%29.81 "Hg10 mi
11:15 PM71 °FPassing clouds.8 mph91%29.83 "Hg10 mi
10:55 PM71 °FClear.15 mph89%29.82 "Hg10 mi
10:35 PM71 °FClear.13 mph88%29.82 "Hg10 mi
10:15 PM71 °FClear.14 mph88%29.82 "Hg10 mi
9:55 PM71 °FClear.12 mph88%29.81 "Hg10 mi
9:35 PM71 °FClear.13 mph88%29.78 "Hg10 mi
9:15 PM71 °FSunny.13 mph88%29.78 "Hg10 mi
8:55 PM71 °FSunny.10 mph88%29.78 "Hg10 mi
8:35 PM72 °FSunny.13 mph86%29.79 "Hg10 mi
8:15 PM72 °FSunny.15 mph85%29.79 "Hg10 mi
7:50 PM73 °FSunny.12 mph78%29.78 "Hg10 mi
6:50 PM77 °FSunny.17 mph74%29.81 "Hg10 mi
5:50 PM79 °FSunny.15 mph65%29.81 "Hg10 mi
4:50 PM79 °FSunny.21 mph65%29.82 "Hg10 mi
3:50 PM75 °FSunny.15 mph78%29.85 "Hg10 mi
2:50 PM75 °FSunny.12 mph74%29.87 "Hg10 mi
12:50 PM75 °FSunny.10 mph74%29.88 "Hg7 mi
11:50 AM72 °FThunderstorms. Mostly cloudy.20 mph83%29.86 "Hg5 mi
Weather by CustomWeather, © 2016

See weather overviewHow to use our weather pages